Weather History for KTPF - February, 2013

Change the Weather History Date:

Wednesday, February 13, 2013

  Actual Average (KTPA) Record (KTPA)
Temperature  
Mean Temperature 69 °F 63 °F  
Max Temperature 78 °F 72 °F 85 °F (1959)
Min Temperature 60 °F 54 °F 26 °F (1899)
Degree Days  
Heating Degree Days 0 4  
Month to date heating degree days 59  
Since 1 July heating degree days 424  
Cooling Degree Days 4 2  
Month to date cooling degree days 26  
Year to date cooling degree days 76  
Growing Degree Days 19 (Base 50)    
Moisture  
Dew Point 65 °F    
Average Humidity 83    
Maximum Humidity 94    
Minimum Humidity 63    
Precipitation  
Precipitation 0.05 in 0.11 in 1.44 in (1947)
Month to date precipitation 1.33  
Year to date precipitation 3.56  
Sea Level Pressure  
Sea Level Pressure 29.95 in    
Wind  
Wind Speed 9 mph (SW)    
Max Wind Speed 20 mph    
Max Gust Speed 33 mph    
Visibility 9 miles    
Events Rain    
T = Trace of Precipitation, MM = Missing Value Source: NWS Daily Summary

Daily Weather History Graph

Daily Weather History Graph

Search for Another Location

Airport or City:

Trip Planner

Search our weather history database for the weather conditions in past years. The results will help you decide how hot, cold, wet, or windy it might be!

Date:

Astronomy

Feb. 13, 2013 Rise Set
Actual Time 7:08 AM EST 6:19 PM EST
Civil Twilight 6:44 AM EST 6:43 PM EST
Nautical Twilight 6:17 AM EST 7:11 PM EST
Astronomical Twilight 5:49 AM EST 7:38 PM EST
Moon 9:01 AM EST (2/13) 9:54 PM EST (2/13)
Length of Visible Light 11h 59m
Length of Day
11h 11m
Waxing Crescent, 13% of the Moon is Illuminated
Feb 13
Waxing Crescent
Feb 17
First Quarter
Feb 25
Full
Mar 4
Last Quarter
Mar 11
New

Hourly Weather History & Observations

Time (EST) Temp. Dew Point Humidity Pressure Visibility Wind Dir Wind Speed Gust Speed Precip Events Conditions
12:15 AM 69.8 °F 68.0 °F 94% 29.97 in 5.0 mi South 5.8 mph - N/A   Overcast
12:35 AM 69.8 °F 68.0 °F 94% 29.98 in 5.0 mi SSW 5.8 mph - N/A   Overcast
12:55 AM 69.8 °F 68.0 °F 94% 29.97 in 7.0 mi SSW 5.8 mph - N/A   Overcast
1:15 AM 69.8 °F 68.0 °F 94% 29.97 in 7.0 mi South 5.8 mph - N/A   Overcast
1:35 AM 69.8 °F 66.2 °F 88% 29.96 in 7.0 mi South 5.8 mph - N/A   Mostly Cloudy
1:55 AM 68.0 °F 66.2 °F 94% 29.96 in 7.0 mi South 5.8 mph - N/A   Scattered Clouds
2:15 AM 68.0 °F 66.2 °F 94% 29.96 in 7.0 mi South 6.9 mph - N/A   Scattered Clouds
2:35 AM 68.0 °F 66.2 °F 94% 29.95 in 7.0 mi South 6.9 mph - N/A   Scattered Clouds
3:15 AM 68.0 °F 66.2 °F 94% 29.94 in 7.0 mi South 8.1 mph - N/A   Scattered Clouds
3:35 AM 68.0 °F 66.2 °F 94% 29.94 in 7.0 mi South 9.2 mph - N/A   Clear
3:55 AM 68.0 °F 66.2 °F 94% 29.94 in 7.0 mi South 9.2 mph - N/A   Clear
4:15 AM 68.0 °F 66.2 °F 94% 29.93 in 7.0 mi SSW 9.2 mph - N/A   Clear
4:35 AM 68.0 °F 66.2 °F 94% 29.93 in 7.0 mi SSW 10.4 mph - N/A   Clear
4:55 AM 68.0 °F 66.2 °F 94% 29.93 in 7.0 mi SSW 9.2 mph - N/A   Clear
5:15 AM 68.0 °F 66.2 °F 94% 29.93 in 7.0 mi SSW 10.4 mph - N/A   Scattered Clouds
5:35 AM 68.0 °F 66.2 °F 94% 29.93 in 7.0 mi South 9.2 mph - N/A   Scattered Clouds
5:55 AM 68.0 °F 66.2 °F 94% 29.93 in 7.0 mi South 9.2 mph - N/A   Scattered Clouds
6:15 AM 68.0 °F 66.2 °F 94% 29.94 in 7.0 mi South 8.1 mph - N/A   Scattered Clouds
6:35 AM 68.0 °F 66.2 °F 94% 29.94 in 7.0 mi South 5.8 mph - N/A   Mostly Cloudy
6:55 AM 68.0 °F 66.2 °F 94% 29.95 in 7.0 mi SSW 6.9 mph - N/A   Overcast
7:15 AM 68.0 °F 66.2 °F 94% 29.95 in 7.0 mi South 6.9 mph - N/A   Overcast
7:35 AM 68.0 °F 66.2 °F 94% 29.96 in 5.0 mi South 6.9 mph - N/A   Overcast
7:55 AM 69.8 °F 68.0 °F 94% 29.96 in 5.0 mi SSW 5.8 mph - N/A   Overcast
8:15 AM 69.8 °F 68.0 °F 94% 29.97 in 7.0 mi SW 6.9 mph - N/A   Overcast
8:35 AM 69.8 °F 68.0 °F 94% 29.97 in 7.0 mi SW 13.8 mph - N/A   Overcast
8:55 AM 71.6 °F 68.0 °F 88% 29.98 in 7.0 mi SW 12.7 mph 20.7 mph N/A   Overcast
9:15 AM 71.6 °F 68.0 °F 88% 29.98 in 7.0 mi SSW 16.1 mph 19.6 mph N/A   Overcast
9:35 AM 71.6 °F 68.0 °F 88% 29.98 in 10.0 mi North - - N/A   Overcast
9:55 AM 71.6 °F 68.0 °F 88% 29.98 in 10.0 mi SSW 16.1 mph - N/A   Overcast
10:15 AM 73.4 °F 68.0 °F 83% 29.98 in 10.0 mi SSW 19.6 mph - N/A   Overcast
10:35 AM 73.4 °F 68.0 °F 83% 29.97 in 10.0 mi SSW 19.6 mph 25.3 mph N/A   Overcast
10:55 AM 75.2 °F 68.0 °F 78% 29.97 in 10.0 mi SSW 17.3 mph - N/A   Mostly Cloudy
11:15 AM 77.0 °F 68.0 °F 74% 29.96 in 10.0 mi SSW 15.0 mph - N/A   Scattered Clouds
11:35 AM 78.8 °F 68.0 °F 69% 29.96 in 10.0 mi SSW 12.7 mph - N/A   Scattered Clouds
11:55 AM 77.0 °F 68.0 °F 74% 29.95 in 10.0 mi SSW 15.0 mph - N/A   Clear
12:15 PM 78.8 °F 68.0 °F 69% 29.95 in 10.0 mi SW 18.4 mph 23.0 mph N/A   Clear
12:35 PM 78.8 °F 68.0 °F 69% 29.94 in 10.0 mi SW 16.1 mph - N/A   Clear
12:55 PM 78.8 °F 68.0 °F 69% 29.93 in 10.0 mi SW 17.3 mph 24.2 mph N/A   Clear
1:15 PM 78.8 °F 68.0 °F 69% 29.92 in 10.0 mi SW 18.4 mph 27.6 mph N/A   Clear
1:35 PM 78.8 °F 68.0 °F 69% 29.91 in 10.0 mi SW 17.3 mph 26.5 mph N/A   Mostly Cloudy
1:55 PM 78.8 °F 68.0 °F 69% 29.91 in 10.0 mi SW 17.3 mph 25.3 mph N/A   Overcast
2:15 PM 78.8 °F 68.0 °F 69% 29.90 in 10.0 mi SW 16.1 mph 23.0 mph N/A   Mostly Cloudy
2:35 PM 77.0 °F 68.0 °F 74% 29.90 in 10.0 mi SW 17.3 mph 25.3 mph N/A   Mostly Cloudy
2:55 PM 77.0 °F 68.0 °F 74% 29.89 in 10.0 mi SW 16.1 mph 23.0 mph N/A   Mostly Cloudy
3:15 PM 77.0 °F 68.0 °F 74% 29.89 in 10.0 mi SW 16.1 mph 27.6 mph N/A   Overcast
3:35 PM 75.2 °F 68.0 °F 78% 29.89 in 10.0 mi SW 17.3 mph 27.6 mph N/A   Overcast
3:55 PM 77.0 °F 68.0 °F 74% 29.88 in 10.0 mi SW 17.3 mph - N/A   Mostly Cloudy
4:15 PM 77.0 °F 68.0 °F 74% 29.88 in 10.0 mi SW 19.6 mph 25.3 mph N/A   Mostly Cloudy
4:35 PM 75.2 °F 68.0 °F 78% 29.89 in 10.0 mi SW 18.4 mph 26.5 mph N/A   Overcast
4:55 PM 73.4 °F 68.0 °F 83% 29.88 in 10.0 mi SW 16.1 mph 25.3 mph N/A   Overcast
5:15 PM 73.4 °F 68.0 °F 83% 29.88 in 10.0 mi SW 17.3 mph 27.6 mph N/A   Mostly Cloudy
5:35 PM 73.4 °F 68.0 °F 83% 29.89 in 10.0 mi SW 13.8 mph 23.0 mph N/A   Overcast
5:55 PM 73.4 °F 68.0 °F 83% 29.88 in 10.0 mi SW 15.0 mph 19.6 mph N/A   Overcast
6:15 PM 71.6 °F 68.0 °F 88% 29.89 in 10.0 mi SW 13.8 mph 19.6 mph N/A   Overcast
6:35 PM 71.6 °F 68.0 °F 88% 29.89 in 10.0 mi SW 11.5 mph - N/A   Overcast
6:55 PM 71.6 °F 68.0 °F 88% 29.90 in 10.0 mi SW 4.6 mph - N/A   Overcast
7:15 PM 62.6 °F 57.2 °F 82% 29.94 in 7.0 mi NNW 15.0 mph 33.4 mph 0.01 in Rain Rain
7:35 PM 60.8 °F 57.2 °F 88% 29.95 in 7.0 mi North 5.8 mph - 0.04 in Rain Light Rain
7:55 PM 62.6 °F 59.0 °F 88% 29.98 in 10.0 mi NW 3.5 mph - 0.05 in Rain Light Rain
8:15 PM 62.6 °F 57.2 °F 82% 29.97 in 10.0 mi North 5.8 mph - N/A   Overcast
8:35 PM 62.6 °F 53.6 °F 72% 29.97 in 10.0 mi North 4.6 mph - N/A   Overcast
8:55 PM 62.6 °F 53.6 °F 72% 29.98 in 10.0 mi North 4.6 mph - N/A   Overcast
9:15 PM 62.6 °F 53.6 °F 72% 29.98 in 10.0 mi NNE 4.6 mph - N/A   Overcast
9:35 PM 62.6 °F 53.6 °F 72% 29.98 in 10.0 mi NNE 3.5 mph - N/A   Overcast
9:55 PM 62.6 °F 53.6 °F 72% 29.98 in 10.0 mi NNE 3.5 mph - N/A   Overcast
10:15 PM 62.6 °F 53.6 °F 72% 29.99 in 10.0 mi Calm Calm - N/A   Overcast
10:35 PM 62.6 °F 55.4 °F 77% 30.00 in 10.0 mi Calm Calm - N/A   Overcast
10:55 PM 62.6 °F 53.6 °F 72% 30.01 in 10.0 mi Calm Calm - N/A   Overcast
11:15 PM 62.6 °F 53.6 °F 72% 30.00 in 10.0 mi NNW 3.5 mph - N/A   Overcast
11:35 PM 62.6 °F 53.6 °F 72% 30.02 in 10.0 mi NW 3.5 mph - N/A   Overcast
11:55 PM 62.6 °F 50.0 °F 63% 30.02 in 10.0 mi North 4.6 mph - N/A Rain Rain